DW1774 Weather Reports


time (UTC)temp
C
wind
direction
speed
KPH
gust
KPH
rain 1hr
cm
rain 24hr
cm
rain mn
cm
humidity
%
barometer
mb
20260504222904 26 174 9.7 19.3 0.00 0.00 0.00 60 1011.9
20260504222405 26 184 4.8 19.3 0.00 0.00 0.00 61 1012.0
20260504221404 26 187 4.8 19.3 0.00 0.00 0.00 59 1012.1
20260504220904 26 192 8.0 19.3 0.00 0.00 0.00 59 1012.1
20260504220404 26 172 6.4 19.3 0.00 0.00 0.00 59 1012.1
20260504215904 26 189 9.7 22.5 0.00 0.00 0.00 59 1012.1
20260504215404 26 170 8.0 24.1 0.00 0.00 0.00 58 1012.2
20260504214904 26 184 8.0 24.1 0.00 0.00 0.00 58 1012.3
20260504214404 27 177 11.3 20.9 0.00 0.00 0.00 57 1012.3
20260504213905 27 185 8.0 19.3 0.00 0.00 0.00 56 1012.3
20260504213404 27 180 6.4 25.7 0.00 0.00 0.00 57 1012.4
20260504212905 27 159 9.7 25.7 0.00 0.00 0.00 56 1012.3
20260504212404 27 179 9.7 20.9 0.00 0.00 0.00 56 1012.3
20260504211904 27 186 8.0 22.5 0.00 0.00 0.00 55 1012.5
20260504210904 28 163 8.0 22.5 0.00 0.00 0.00 55 1012.6
20260504205905 28 159 9.7 20.9 0.00 0.00 0.00 54 1012.6
20260504205404 28 195 8.0 20.9 0.00 0.00 0.00 52 1012.7
20260504204904 28 171 8.0 20.9 0.00 0.00 0.00 50 1012.6
20260504204404 29 167 8.0 19.3 0.00 0.00 0.00 51 1012.8
20260504203904 29 176 6.4 19.3 0.00 0.00 0.00 53 1012.8
20260504203404 28 169 6.4 16.1 0.00 0.00 0.00 53 1012.9
20260504202903 28 166 8.0 19.3 0.00 0.00 0.00 52 1013.0
20260504202405 28 202 8.0 19.3 0.00 0.00 0.00 51 1013.0
20260504201904 28 182 3.2 19.3 0.00 0.00 0.00 51 1013.1
20260504201405 28 194 4.8 22.5 0.00 0.00 0.00 51 1013.2
20260504200905 28 252 9.7 22.5 0.00 0.00 0.00 49 1013.2
20260504200405 28 213 4.8 19.3 0.00 0.00 0.00 52 1013.2
20260504195404 29 175 8.0 19.3 0.00 0.00 0.00 50 1013.4
20260504194905 29 170 11.3 19.3 0.00 0.00 0.00 49 1013.4
20260504193904 30 185 4.8 19.3 0.00 0.00 0.00 48 1013.5
20260504192905 30 203 6.4 16.1 0.00 0.00 0.00 47 1013.9
20260504192405 30 205 4.8 19.3 0.00 0.00 0.00 48 1013.9
20260504191904 30 211 4.8 19.3 0.00 0.00 0.00 50 1013.9
20260504191404 30 183 8.0 24.1 0.00 0.00 0.00 51 1013.9
20260504190905 29 150 9.7 24.1 0.00 0.00 0.00 48 1014.0
20260504190404 29 162 9.7 24.1 0.00 0.00 0.00 50 1014.0
20260504185405 29 157 6.4 20.9 0.00 0.00 0.00 49 1014.1
20260504184904 29 195 9.7 20.9 0.00 0.00 0.00 48 1014.0
20260504184405 29 204 8.0 20.9 0.00 0.00 0.00 50 1013.9
20260504183904 29 172 11.3 20.9 0.00 0.00 0.00 50 1013.9
20260504183404 29 191 11.3 19.3 0.00 0.00 0.00 48 1014.0
20260504182903 28 237 4.8 20.9 0.00 0.00 0.00 49 1014.1
20260504182403 28 173 11.3 20.9 0.00 0.00 0.00 48 1014.4
20260504181904 28 172 11.3 20.9 0.00 0.00 0.00 51 1014.4
20260504181405 28 190 6.4 19.3 0.00 0.00 0.00 52 1014.5
20260504180904 28 182 8.0 24.1 0.00 0.00 0.00 50 1014.6
20260504180404 28 195 8.0 24.1 0.00 0.00 0.00 49 1014.6
20260504175904 28 192 9.7 24.1 0.00 0.00 0.00 50 1014.7
20260504175405 28 205 4.8 24.1 0.00 0.00 0.00 52 1014.6
20260504174405 28 149 1.6 22.5 0.00 0.00 0.00 49 1014.6
20260504173904 28 188 9.7 22.5 0.00 0.00 0.00 51 1014.8
20260504172904 28 216 9.7 19.3 0.00 0.00 0.00 50 1015.0
20260504172404 28 187 6.4 19.3 0.00 0.00 0.00 51 1015.0
20260504171903 28 188 6.4 19.3 0.00 0.00 0.00 51 1015.0
20260504170904 28 181 8.0 19.3 0.00 0.00 0.00 50 1015.2
20260504170403 28 182 3.2 20.9 0.00 0.00 0.00 51 1015.2
20260504160404 26 176 3.2 19.3 0.00 0.00 0.00 54 1016.0
20260504150905 26 185 11.3 24.1 0.00 0.00 0.00 55 1015.9
20260504150404 26 219 11.3 24.1 0.00 0.00 0.00 56 1016.0
20260504140905 24 180 4.8 19.3 0.00 0.00 0.00 63 1015.8
20260504140404 23 177 8.0 19.3 0.00 0.00 0.00 64 1015.8
20260504130404 16 168 0.0 0.0 0.00 0.00 0.00 88 1016.0
20260504100404 15 171 0.0 0.0 0.00 0.00 0.00 80 1015.6
20260504081904 15 171 0.0 0.0 0.00 0.00 0.00 76 1016.5
20260504081405 15 171 0.0 0.0 0.00 0.00 0.00 76 1016.5
20260504080904 15 171 0.0 0.0 0.00 0.00 0.00 75 1016.6
20260504080404 15 171 0.0 0.0 0.00 0.00 0.00 75 1016.8
20260504070404 15 170 1.6 3.2 0.00 0.00 0.00 75 1017.4
20260504045903 16 168 0.0 0.0 0.00 0.00 0.00 67 1018.3
20260504045405 17 168 0.0 0.0 0.00 0.00 0.00 67 1018.5
20260504044904 17 168 0.0 0.0 0.00 0.00 0.00 66 1018.5
20260504044404 17 168 0.0 0.0 0.00 0.00 0.00 66 1018.5
20260504043904 17 168 0.0 0.0 0.00 0.00 0.00 65 1018.6
20260504042404 17 168 0.0 0.0 0.00 0.00 0.00 64 1018.6
20260504041904 17 168 0.0 0.0 0.00 0.00 0.00 64 1018.5
20260504041404 17 168 0.0 0.0 0.00 0.00 0.00 64 1018.4
20260504040904 17 168 0.0 0.0 0.00 0.00 0.00 63 1018.4
20260504040403 17 168 0.0 0.0 0.00 0.00 0.00 63 1018.4
20260504035904 18 168 0.0 0.0 0.00 0.00 0.00 62 1018.4
20260504034904 18 168 0.0 0.0 0.00 0.00 0.00 62 1018.5
20260504034403 18 168 0.0 0.0 0.00 0.00 0.00 61 1018.7
20260504033405 18 168 0.0 4.8 0.00 0.00 0.00 60 1018.5
20260504032905 18 168 0.0 4.8 0.00 0.00 0.00 60 1018.5
20260504032404 18 168 0.0 3.2 0.00 0.00 0.00 60 1018.5
20260504031404 18 168 0.0 3.2 0.00 0.00 0.00 58 1018.3
20260504030904 19 168 0.0 3.2 0.00 0.00 0.00 58 1018.3
20260504030403 19 168 1.6 3.2 0.00 0.00 0.00 57 1018.4
20260504025404 19 168 0.0 4.8 0.00 0.00 0.00 57 1018.4
20260504024904 19 168 0.0 4.8 0.00 0.00 0.00 57 1018.5
20260504024404 20 168 1.6 3.2 0.00 0.00 0.00 56 1018.5
20260504023905 20 167 1.6 4.8 0.00 0.00 0.00 56 1018.5
20260504023404 20 167 1.6 4.8 0.00 0.00 0.00 55 1018.4
20260504022904 20 167 1.6 4.8 0.00 0.00 0.00 55 1018.4
20260504022404 20 167 1.6 4.8 0.00 0.00 0.00 55 1018.3
20260504021904 20 189 0.0 0.0 0.00 0.00 0.00 54 1018.3
20260504021404 20 189 0.0 0.0 0.00 0.00 0.00 53 1018.4
20260504020904 20 189 0.0 0.0 0.00 0.00 0.00 53 1018.3
20260504020403 20 189 0.0 4.8 0.00 0.00 0.00 53 1018.3
20260504015904 20 190 0.0 8.0 0.00 0.00 0.00 53 1018.3
20260504015404 20 190 1.6 8.0 0.00 0.00 0.00 52 1018.3
20260504014904 21 162 3.2 12.9 0.00 0.00 0.00 52 1018.3
20260504014404 21 166 3.2 12.9 0.00 0.00 0.00 52 1018.3
20260504012404 21 159 3.2 11.3 0.00 0.00 0.00 50 1018.3
20260504011904 21 183 3.2 9.7 0.00 0.00 0.00 49 1018.2
20260504010904 22 165 3.2 9.7 0.00 0.00 0.00 48 1018.2
20260504010404 22 185 1.6 8.0 0.00 0.00 0.00 47 1018.2
20260504005903 22 167 3.2 9.7 0.00 0.00 0.00 47 1018.2
20260504005404 22 194 4.8 11.3 0.00 0.00 0.00 47 1018.2
20260504004904 22 164 3.2 11.3 0.00 0.00 0.00 46 1018.1
20260504004404 22 156 3.2 14.5 0.00 0.00 0.00 45 1018.1
20260504003903 22 185 4.8 14.5 0.00 0.00 0.00 45 1018.2
20260504002904 23 164 4.8 14.5 0.00 0.00 0.00 43 1018.1
20260504002404 23 188 4.8 19.3 0.00 0.00 0.00 43 1018.0
20260504001404 23 175 3.2 19.3 0.00 0.00 0.00 41 1018.1
20260504000905 23 140 8.0 16.1 0.00 0.00 0.00 41 1018.2
20260504000403 24 147 1.6 14.5 0.00 0.00 0.00 40 1018.2
20260503235904 24 183 4.8 14.5 0.00 0.00 0.00 40 1018.1
20260503235404 25 161 8.0 12.9 0.00 0.00 0.00 38 1018.2
20260503234904 25 146 8.0 14.5 0.00 0.00 0.00 38 1018.3
20260503234404 25 173 8.0 14.5 0.00 0.00 0.00 37 1018.3
20260503233905 26 160 3.2 12.9 0.00 0.00 0.00 38 1018.3
20260503232403 26 172 4.8 14.5 0.00 0.00 0.00 36 1018.4
20260503231904 26 180 4.8 14.5 0.00 0.00 0.00 37 1018.4
20260503230904 26 174 3.2 16.1 0.00 0.00 0.00 37 1018.5
20260503230404 26 163 4.8 16.1 0.00 0.00 0.00 36 1018.6
20260503225905 26 160 3.2 12.9 0.00 0.00 0.00 36 1018.5
20260503225405 26 161 4.8 19.3 0.00 0.00 0.00 35 1018.6
20260503224403 27 142 4.8 14.5 0.00 0.00 0.00 36 1018.6
20260503223904 27 127 3.2 12.9 0.00 0.00 0.00 35 1018.7
20260503223404 27 142 4.8 14.5 0.00 0.00 0.00 33 1018.9